Weather History for KTCC - July, 2013

Change the Weather History Date:

Friday, July 26, 2013

  Actual Average Record
Temperature  
Mean Temperature 78 °F -  
Max Temperature 88 °F 92 °F 105 °F (2014)
Min Temperature 69 °F 63 °F 54 °F (2004)
Cooling Degree Days 14    
Growing Degree Days 28 (Base 50)    
Moisture  
Dew Point 58 °F    
Average Humidity 56    
Maximum Humidity 87    
Minimum Humidity 28    
Precipitation  
Precipitation 0.00 in - - ()
Sea Level Pressure  
Sea Level Pressure 30.04 in    
Wind  
Wind Speed 8 mph (NE)    
Max Wind Speed 17 mph    
Max Gust Speed 23 mph    
Visibility 10 miles    
Events Rain , Thunderstorm    
Averages and records for this station are not official NWS values.
T = Trace of Precipitation, MM = Missing Value Source: NWS Daily Summary

Daily Weather History Graph

Daily Weather History Graph

Search for Another Location

Airport or City:

Trip Planner

Search our weather history database for the weather conditions in past years. The results will help you decide how hot, cold, wet, or windy it might be!

Date:

Astronomy

Jul. 26, 2013 Rise Set
Actual Time 5:59 AM MDT 8:02 PM MDT
Civil Twilight 5:30 AM MDT 8:30 PM MDT
Nautical Twilight 4:56 AM MDT 9:04 PM MDT
Astronomical Twilight 4:19 AM MDT 9:41 PM MDT
Moon 10:31 PM MDT (7/26) 10:25 AM MDT (7/26)
Length of Visible Light 14h 59m
Length of Day
14h 03m
Waning Gibbous, 79% of the Moon is Illuminated
Jul 26
Waning Gibbous
Jul 29
Last Quarter
Aug 6
New
Aug 14
First Quarter
Aug 20
Full

Hourly Weather History & Observations

Time (MDT) Temp. Heat Index Dew Point Humidity Pressure Visibility Wind Dir Wind Speed Gust Speed Precip Events Conditions
12:02 AM 71.6 °F - 64.4 °F 78% 30.16 in 10.0 mi WSW 10.4 mph - 0.00 in Rain , Thunderstorm Light Thunderstorms and Rain
12:32 AM 71.6 °F - 64.4 °F 78% 30.19 in 10.0 mi WNW 5.8 mph - 0.00 in Rain Light Rain
12:53 AM 72.0 °F - 64.0 °F 76% 29.99 in 10.0 mi Calm Calm - 0.00 in Rain Light Rain
1:53 AM 71.1 °F - 64.9 °F 81% 29.99 in 10.0 mi West 9.2 mph - 0.00 in   Clear
2:53 AM 70.0 °F - 64.9 °F 84% 29.99 in 10.0 mi West 10.4 mph - N/A   Clear
3:53 AM 69.1 °F - 64.9 °F 87% 29.98 in 10.0 mi WNW 9.2 mph - N/A   Clear
4:53 AM 70.0 °F - 64.0 °F 81% 29.99 in 10.0 mi Calm Calm - N/A   Clear
5:53 AM 69.1 °F - 63.0 °F 81% 30.00 in 10.0 mi North 3.5 mph - N/A   Clear
6:53 AM 70.0 °F - 61.0 °F 73% 30.02 in 10.0 mi NNE 5.8 mph - N/A   Clear
7:53 AM 72.0 °F - 60.1 °F 66% 30.04 in 10.0 mi NE 9.2 mph - N/A   Clear
8:53 AM 75.9 °F - 61.0 °F 60% 30.05 in 10.0 mi NE 10.4 mph - N/A   Clear
9:53 AM 77.0 °F - 61.0 °F 58% 30.06 in 10.0 mi NE 9.2 mph - N/A   Clear
10:53 AM 81.0 °F 81.7 °F 61.0 °F 50% 30.07 in 10.0 mi Variable 6.9 mph - N/A   Clear
11:53 AM 84.0 °F 84.0 °F 60.1 °F 44% 30.06 in 10.0 mi NE 13.8 mph 17.3 mph N/A   Clear
12:53 PM 86.0 °F 84.7 °F 55.9 °F 36% 30.04 in 10.0 mi NNE 13.8 mph - N/A   Clear
1:53 PM 86.0 °F 84.5 °F 55.0 °F 35% 30.03 in 10.0 mi East 11.5 mph - N/A   Clear
2:53 PM 88.0 °F - 51.1 °F 28% 30.00 in 10.0 mi East 11.5 mph - N/A   Clear
3:53 PM 88.0 °F - 52.0 °F 29% 30.00 in 10.0 mi ENE 13.8 mph - N/A   Clear
4:53 PM 88.0 °F - 52.0 °F 29% 29.99 in 10.0 mi East 17.3 mph 23.0 mph N/A   Clear
5:53 PM 84.9 °F - 48.0 °F 28% 30.01 in 10.0 mi ENE 17.3 mph - N/A   Clear
6:53 PM 82.9 °F - 48.9 °F 31% 30.02 in 10.0 mi ENE 11.5 mph - N/A   Clear
7:53 PM 80.1 °F - 50.0 °F 35% 30.03 in 10.0 mi ENE 9.2 mph - N/A   Clear
8:53 PM 78.1 °F - 53.1 °F 42% 30.04 in 10.0 mi ENE 6.9 mph - N/A   Clear
9:53 PM 75.0 °F - 55.9 °F 51% 30.07 in 10.0 mi East 5.8 mph - N/A   Clear
10:53 PM 73.9 °F - 57.0 °F 55% 30.07 in 10.0 mi East 3.5 mph - N/A   Clear
11:53 PM 73.0 °F - 59.0 °F 61% 30.06 in 10.0 mi Calm Calm - N/A   Clear